Regional Weather Roundup
Issued by NWS

Home | Current Version | Previous Version | Graphics & Text | Print | Product List | Glossary Off
Versions: 1 2 3 4 5 6 7 8 9 10 11 12 13 14 15 16 17 18 19 20 21 22 23 24 25 26 27 28 29 30 31 32 33 34 35 36 37 38 39 40 41 42 43 44 45 46 47 48 49 50

000
ASUS43 KTOP 250608
RWRKS

WEATHER ROUNDUP FOR KANSAS
NATIONAL WEATHER SERVICE GOODLAND KS
100 AM CDT FRI JUL 25 2014

NOTE:  "FAIR" INDICATES FEW OR NO CLOUDS BELOW 12,000 FEET WITH NO
SIGNIFICANT WEATHER AND/OR OBSTRUCTIONS TO VISIBILITY.

KSZ001>006-013>018-027>032-041>047-250700-
NORTHWEST KANSAS

CITY           SKY/WX    TMP DP  RH WIND       PRES   REMARKS
GOODLAND       MOCLDY    77  55  46 SW7       29.94S
6HR MIN TEMP:  77; 6HR MAX TEMP:  93;

HAYS           PTCLDY    61  61 100 S18G26    29.88S
HILL CITY      MOCLDY    85  67  54 S15G28    29.85R
6HR MIN TEMP:  85; 6HR MAX TEMP:  96;

RUSSELL        CLEAR     82  70  66 S21       29.87R
6HR MIN TEMP:  82; 6HR MAX TEMP:  91;

$$

KSZ061>065-074>080-084>089-250700-
SOUTHWEST KANSAS

CITY           SKY/WX    TMP DP  RH WIND       PRES   REMARKS
DODGE CITY     CLEAR     78  64  61 S13       29.95S
6HR MIN TEMP:  77; 6HR MAX TEMP:  95;

ELKHART          N/A     79  55  43 S14         N/A
GARDEN CITY    PTCLDY    81  61  50 S18       29.94S
6HR MIN TEMP:  76; 6HR MAX TEMP:  94;

GREAT BEND     CLEAR     81  70  69 S21G28    29.90R
LIBERAL        CLEAR     81  61  50 S17       29.99F
PRATT          CLEAR     79  68  69 S15       29.96R
$$

KSZ066>073-081>083-090>101-250700-
SOUTHEAST KANSAS

CITY           SKY/WX    TMP DP  RH WIND       PRES   REMARKS
CHANUTE        MOCLDY    73  68  84 SE7       30.00S
6HR MIN TEMP:  73; 6HR MAX TEMP:  85;

COFFEYVILLE    PTCLDY    75  71  87 S7        29.99S
6HR MIN TEMP:  75; 6HR MAX TEMP:  87;

HUTCHINSON     CLEAR     80  69  69 S14       29.94S
6HR MIN TEMP:  80; 6HR MAX TEMP:  92;

MEDICINE LODGE   N/A     80  72  76 SE7       29.95R
NEWTON         CLEAR     77  66  69 S13       29.99R
PARSONS        MOCLDY    76  70  82 S3        30.01S
6HR MIN TEMP:  73; 6HR MAX TEMP:  86;

WICHITA INTL   PTCLDY    78  71  79 S13       29.95S
6HR MIN TEMP:  78; 6HR MAX TEMP:  88;

WICHITA JABRA  CLEAR     77  71  82 S12       29.96R
6HR MIN TEMP:  77; 6HR MAX TEMP:  89;

WICHITA MCCONL CLEAR     78  75  90 SE13      29.97R
WINFIELD       CLEAR     77  73  87 S9        29.97S
6HR MIN TEMP:  77; 6HR MAX TEMP:  87;

$$

KSZ007>012-019>026-033>040-048>060-102>105-250700-
NORTHEAST KANSAS

CITY           SKY/WX    TMP DP  RH WIND       PRES   REMARKS
CONCORDIA      CLOUDY    77  69  76 SE17G25   29.89S
6HR MIN TEMP:  77; 6HR MAX TEMP:  89;

EMPORIA        PTCLDY    74  66  76 SE10      29.98R
6HR MIN TEMP:  74; 6HR MAX TEMP:  85;

LAWRENCE       CLEAR     68  60  75 SE8       29.96S
6HR MIN TEMP:  66; 6HR MAX TEMP:  84;

MANHATTAN      PTCLDY    78  67  68 S9        29.92F
6HR MIN TEMP:  77; 6HR MAX TEMP:  89;

MARYSVILLE     CLOUDY    75  64  69 SE13      29.89F
OLATHE IND     CLEAR     70  59  68 SE10      29.98R
6HR MIN TEMP:  70; 6HR MAX TEMP:  82;

OLATHE EXE     CLEAR     69  59  70 SE8       29.97R
6HR MIN TEMP:  69; 6HR MAX TEMP:  80;

SALINA         PTCLDY    82  68  62 S18G26    29.89F
6HR MIN TEMP:  82; 6HR MAX TEMP:  93;

TOPEKA BILLARD CLEAR     76  58  53 SE7       29.94F
6HR MIN TEMP:  75; 6HR MAX TEMP:  87;

TOPEKA FORBES  CLEAR     75  58  55 S14       29.94F
6HR MIN TEMP:  74; 6HR MAX TEMP:  87;

$$



USA.gov is the U.S. government's official web portal to all federal, state and local government web resources and services.